[[{"header":{"parameterUnit":"m.s-1","parameterCategory":2,"la1":30.2991,"la2":30.254,"lo1":-89.0895,"lo2":-89.0444,"dy":0.0017,"dx":0.0017,"nx":28,"ny":28,"refTime":"2025-07-24T03:00:00:Z","depth":"0","parameterNumber":2,"parameterNumberName":"U-component_of_CURRENTS"},"data":[0,0,0,0,0,0,0,0,0,0,0,0,0,0,0,0,0,0,0,0,0,0,0,0,0,0,0,0,0,0,0,0,0,0,0,0,0,0,0,0,0,0,0,0,0,0,0,0,0,0,0,0,0,0,0,0,0,0,0.1969,0.1968,0,0.1891,0.189,0.1889,0.1849,0.185,0.185,0.185,0.179,0.1788,0.1786,0,0,0,0,0,0,0,0,0,0,0,0,0,0.2023,0.2022,0.1969,0.1968,0.1967,0.1891,0.189,0.1888,0.1849,0.185,0.185,0.185,0.1791,0.1788,0.1786,0,0,0,0,0,0,0,0,0,0,0,0,0,0.1975,0.2022,0.1969,0.194,0.1937,0.1891,0.1889,0.1888,0.1849,0.185,0.185,0.185,0.1791,0.1789,0.1786,0.1764,0,0,0.1778,0.1777,0,0,0,0,0,0,0,0,0.1978,0.1973,0.1945,0.1942,0.1939,0.1882,0.1887,0.1848,0.1849,0.188,0.185,0.185,0.1824,0.1818,0.18,0.1761,0.1758,0.1778,0.1776,0.1775,0.1774,0,0,0,0,0,0,0,0.1982,0.1976,0.1935,0.1944,0.194,0.191,0.1904,0.1878,0.185,0.1878,0.1875,0.187,0.1822,0.1802,0.1798,0.1757,0.1778,0.1775,0.1774,0.1773,0.2007,0.2015,0,0,0,0,0,0,0.1999,0.1979,0.1938,0.1933,0.1962,0.191,0.1903,0.1898,0.185,0.1843,0.187,0.1869,0.1807,0.1801,0.1796,0.2018,0.1775,0.1772,0.1771,0.1999,0.2009,0.2017,0,0,0,0,0,0,0.2,0.1996,0.1941,0.1956,0.1948,0.1909,0.1904,0.1896,0.1892,0.1844,0.1837,0.1875,0.1807,0.18,0.1818,0.2005,0.1771,0.1769,0.199,0.2002,0.2013,0.2301,0,0,0,0,0,0,0.2002,0.1997,0.1998,0.1958,0.1948,0.1944,0.1903,0.1895,0.1888,0.1886,0.1846,0.1839,0.1806,0.1823,0.1816,0.1998,0.1767,0.198,0.1996,0.2009,0.2281,0.2321,0.2355,0,0,0,0,0,0.2004,0.2011,0.1999,0.1994,0.1952,0.1945,0.1938,0.1909,0.1889,0.1902,0.1889,0.1842,0.1916,0.1823,0.1814,0.2,0.1973,0.1991,0.2008,0.2265,0.2313,0.2354,0,0,0,0,0,0,0.2027,0.2006,0.1993,0.199,0.1983,0.194,0.1945,0.1921,0.1915,0.192,0.1869,0.1864,0.1982,0.1933,0.1833,0.2123,0.1966,0.1983,0.2166,0.221,0.2246,0.2335,0.1764,0,0,0,0,0,0.2035,0.2039,0.2017,0.2016,0.202,0.1985,0.1976,0.1964,0.195,0.1947,0.1925,0.1954,0.2046,0.207,0.2101,0.2194,0.2239,0.2336,0.2373,0.2404,0.2478,0.2729,0.2796,0.2075,0.2075,0.2075,0,0,0.2037,0.2031,0.2028,0.2022,0.2012,0.2059,0.1981,0.199,0.2064,0.1942,0.2027,0.2051,0.2095,0.2247,0.2302,0.2225,0.2623,0.2426,0.2452,0.2511,0.2755,0.2825,0.2887,0.2087,0.2085,0.2083,0,0,0.2077,0.2052,0.2087,0.2099,0.2106,0.2104,0.2118,0.2102,0.2137,0.2191,0.2209,0.2353,0.2358,0.2518,0.2585,0.2839,0.2804,0.2845,0.3104,0.3346,0.3408,0.3463,0.3562,0.3623,0.287,0.2871,0.2872,0,0.2087,0.2132,0.2095,0.2152,0.2188,0.2143,0.222,0.2256,0.2256,0.2339,0.2257,0.2511,0.2539,0.2866,0.2992,0.2938,0.2993,0.292,0.3397,0.3453,0.3505,0.3592,0.3657,0.2887,0.2885,0.2884,0.2882,0,0.2174,0.2216,0.2242,0.2315,0.2349,0.2397,0.2452,0.2517,0.2536,0.2588,0.2843,0.2913,0.3081,0.3166,0.3155,0.3586,0.3474,0.3405,0.3281,0.3595,0.3665,0.3728,0.291,0.2904,0.29,0.2896,0,0,0.2195,0.2287,0.23,0.2365,0.2445,0.2477,0.2651,0.2805,0.294,0.3027,0.3253,0.3526,0.356,0.3651,0.3708,0.3962,0.4371,0.386,0.3865,0.3951,0.482,0.4697,0.4749,0.4372,0.4386,0.4397,0.4701,0,0.2286,0.2412,0.2454,0.2601,0.2676,0.2739,0.2894,0.3035,0.3143,0.3332,0.3557,0.3751,0.3745,0.3852,0.4132,0.4283,0.4557,0.4289,0.4511,0.4517,0.4369,0.483,0.4704,0.4965,0.4761,0.4771,0.4779,0,0.2388,0.2455,0.2602,0.2759,0.2802,0.2891,0.3135,0.3266,0.355,0.3642,0.3916,0.4008,0.4425,0.4337,0.4858,0.4666,0.4822,0.4938,0.4949,0.4797,0.4519,0.4634,0.5084,0.495,0.4873,0.4865,0.4858,0,0.2424,0.2576,0.2693,0.2741,0.2905,0.3017,0.3122,0.3368,0.3523,0.3847,0.3985,0.4384,0.4575,0.4898,0.5115,0.5019,0.5616,0.5473,0.553,0.5511,0.544,0.5395,0.5799,0.5949,0.5948,0.5947,0.5946,0,0.2517,0.2615,0.2705,0.2763,0.2927,0.3035,0.3256,0.3413,0.3685,0.3907,0.4136,0.4388,0.4743,0.506,0.5253,0.5581,0.5729,0.5716,0.5678,0.5522,0.5484,0.5377,0.5259,0.5958,0.5956,0.5954,0.5952,0,0.2554,0.2618,0.2744,0.2889,0.2941,0.3049,0.3275,0.3461,0.3674,0.3981,0.4098,0.4473,0.4858,0.5161,0.5644,0.5727,0.5923,0.6124,0.5841,0.5771,0.5629,0.5528,0.5711,0.556,0.6263,0.6263,0.6263,0,0.2609,0.2657,0.278,0.2861,0.2927,0.3087,0.3234,0.3444,0.3634,0.4031,0.4202,0.4616,0.4905,0.5487,0.5766,0.6114,0.5966,0.6157,0.6026,0.5759,0.5621,0.5351,0.5189,0.6009,0.6007,0.6005,0.6004,0,0.27,0.2707,0.2792,0.2928,0.306,0.3199,0.3397,0.3506,0.3786,0.4005,0.4319,0.4558,0.5084,0.5402,0.5814,0.6002,0.5868,0.613,0.6028,0.5678,0.5254,0.5033,0.5533,0.599,0.5992,0.5993,0.5993,0.5994,0.2798,0.2827,0.2926,0.307,0.3176,0.3308,0.339,0.3576,0.3785,0.406,0.4303,0.4605,0.5083,0.564,0.577,0.5897,0.5792,0.5838,0.5798,0.5591,0.532,0.5725,0.6007,0.6008,0.6009,0.6011,0.6011,0,0.3013,0.3022,0.3102,0.3241,0.3329,0.3378,0.3527,0.3572,0.3714,0.4004,0.422,0.4686,0.5041,0.539,0.5701,0.5611,0.54,0.5503,0.5163,0.5064,0.5643,0.5502,0.5477,0.5477,0.5477,0.5478,0.5478,0.5478,0.3188,0.3272,0.326,0.3404,0.3443,0.3503,0.3535,0.3544,0.3684,0.3895,0.4126,0.4388,0.484,0.5363,0.5444,0.5357,0.4989,0.4848,0.4764,0.5219,0.5246,0.5271,0.512,0.5016,0.5015,0.4032,0.4025,0.402]},{"header":{"parameterUnit":"m.s-1","parameterCategory":2,"la1":30.2991,"la2":30.254,"lo1":-89.0895,"lo2":-89.0444,"dy":0.0017,"dx":0.0017,"nx":28,"ny":28,"refTime":"2025-07-24T03:00:00:Z","depth":"0","parameterNumber":3,"parameterNumberName":"V-component_of_CURRENTS"},"data":[0,0,0,0,0,0,0,0,0,0,0,0,0,0,0,0,0,0,0,0,0,0,0,0,0,0,0,0,0,0,0,0,0,0,0,0,0,0,0,0,0,0,0,0,0,0,0,0,0,0,0,0,0,0,0,0,0,0,-0.0582,-0.0582,0,-0.0589,-0.0589,-0.0589,-0.0598,-0.0598,-0.0598,-0.0598,-0.0567,-0.0566,-0.0565,0,0,0,0,0,0,0,0,0,0,0,0,0,-0.0621,-0.062,-0.0582,-0.0582,-0.0582,-0.0589,-0.0589,-0.0589,-0.0598,-0.0598,-0.0598,-0.0598,-0.0567,-0.0566,-0.0565,0,0,0,0,0,0,0,0,0,0,0,0,0,-0.0614,-0.0619,-0.0582,-0.0587,-0.0588,-0.0589,-0.0589,-0.0589,-0.0598,-0.0598,-0.0598,-0.0599,-0.0568,-0.0566,-0.0565,-0.0552,0,0,-0.0561,-0.056,0,0,0,0,0,0,0,0,-0.0614,-0.0612,-0.0586,-0.0587,-0.0588,-0.0593,-0.0592,-0.0575,-0.0598,-0.0594,-0.0598,-0.0599,-0.0572,-0.057,-0.0572,-0.0551,-0.0549,-0.056,-0.056,-0.0559,-0.0559,0,0,0,0,0,0,0,-0.0614,-0.0612,-0.0585,-0.0587,-0.0587,-0.0605,-0.0604,-0.0589,-0.0581,-0.0594,-0.0595,-0.0596,-0.0572,-0.0573,-0.0571,-0.0549,-0.0561,-0.0559,-0.0558,-0.0558,-0.0323,-0.0318,0,0,0,0,0,0,-0.0611,-0.0612,-0.0585,-0.0585,-0.0601,-0.0604,-0.0602,-0.0591,-0.0582,-0.0581,-0.0596,-0.0596,-0.0575,-0.0573,-0.057,-0.0388,-0.0559,-0.0558,-0.0557,-0.0328,-0.0322,-0.0316,0,0,0,0,0,0,-0.0611,-0.0607,-0.0584,-0.06,-0.0598,-0.0602,-0.059,-0.0591,-0.0594,-0.0583,-0.0582,-0.0598,-0.0576,-0.0572,-0.0529,-0.0393,-0.0557,-0.0556,-0.0335,-0.0326,-0.0319,-0.0131,0,0,0,0,0,0,-0.0612,-0.0607,-0.0602,-0.0599,-0.0597,-0.0579,-0.059,-0.0591,-0.0594,-0.0595,-0.0584,-0.0582,-0.0575,-0.0531,-0.0528,-0.0394,-0.0555,-0.0342,-0.0331,-0.0322,-0.0144,-0.0117,-0.0095,0,0,0,0,0,-0.0613,-0.0601,-0.0602,-0.0599,-0.0588,-0.0579,-0.0579,-0.0584,-0.0594,-0.0589,-0.0565,-0.0582,-0.0462,-0.0528,-0.0524,-0.0387,-0.0347,-0.0334,-0.0322,-0.0155,-0.0123,-0.0095,0,0,0,0,0,0,-0.0614,-0.0601,-0.0601,-0.0585,-0.0581,-0.058,-0.0579,-0.0584,-0.0566,-0.0564,-0.0556,-0.055,-0.0446,-0.0456,-0.0529,-0.0284,-0.0389,-0.0376,-0.0262,-0.0232,-0.0208,-0.0103,-0.0553,0,0,0,0,0,-0.0612,-0.0599,-0.0591,-0.0579,-0.0577,-0.058,-0.058,-0.058,-0.0564,-0.0559,-0.0544,-0.0491,-0.0391,-0.0354,-0.0307,-0.021,-0.0197,-0.0103,-0.0078,-0.0058,0.0035,0.0187,0.0235,-0.0276,-0.0277,-0.0277,0,0,-0.0608,-0.06,-0.0592,-0.0579,-0.0578,-0.0531,-0.058,-0.0574,-0.0491,-0.0555,-0.0456,-0.0431,-0.0353,-0.0215,-0.0164,-0.0209,0.0069,-0.0042,-0.0025,0.0058,0.0205,0.0255,0.03,-0.0268,-0.027,-0.0271,0,0,-0.0583,-0.0587,-0.0562,-0.0547,-0.054,-0.0519,-0.0515,-0.0508,-0.046,-0.0389,-0.0353,-0.0232,-0.0183,-0.0027,0.0049,0.0238,0.0181,0.0228,0.0456,0.0601,0.0645,0.0684,0.0645,0.068,0.0257,0.0257,0.0257,0,-0.0576,-0.0531,-0.0555,-0.0518,-0.0471,-0.0501,-0.043,-0.038,-0.0349,-0.0233,-0.0335,-0.0061,-0.0043,0.0284,0.0354,0.0309,0.0295,0.0327,0.0635,0.0675,0.0713,0.0664,0.0701,0.0268,0.0266,0.0265,0.0264,0,-0.0519,-0.0477,-0.0462,-0.0396,-0.0354,-0.0311,-0.0236,-0.0159,-0.0125,-0.0039,0.0212,0.0256,0.0453,0.0481,0.047,0.08,0.0662,0.0628,0.0558,0.0776,0.0708,0.0742,0.0283,0.0279,0.0276,0.0273,0,0,-0.0483,-0.0428,-0.0414,-0.0339,-0.0276,-0.0216,-0.0045,0.0154,0.0351,0.0394,0.068,0.0855,0.0887,0.0983,0.1007,0.1143,0.1323,0.1003,0.1005,0.0959,0.1509,0.1335,0.1352,0.1324,0.1334,0.1342,0.131,0,-0.0411,-0.0313,-0.0282,-0.0121,-0.0047,0.0039,0.023,0.0413,0.0555,0.0805,0.097,0.1194,0.1081,0.1188,0.1324,0.1359,0.1443,0.1328,0.1314,0.1312,0.1133,0.1402,0.1319,0.1283,0.1342,0.1348,0.1352,0,-0.033,-0.0267,-0.0131,0.0083,0.0135,0.0244,0.0596,0.0759,0.111,0.1232,0.1492,0.1572,0.1857,0.1674,0.1871,0.1784,0.1685,0.165,0.1647,0.1479,0.1213,0.1103,0.1342,0.1005,0.1403,0.1399,0.1396,0,-0.0263,-0.0119,0.0006,0.0058,0.0264,0.0418,0.0575,0.0905,0.115,0.1519,0.1719,0.1995,0.2152,0.2167,0.2068,0.1987,0.2186,0.2053,0.1792,0.1766,0.1706,0.1663,0.1645,0.2193,0.2193,0.2193,0.2193,0,-0.0171,-0.0053,0.0045,0.0115,0.0375,0.0495,0.0851,0.1058,0.1432,0.1798,0.1936,0.2247,0.229,0.2386,0.2226,0.2126,0.2302,0.1921,0.1833,0.1747,0.1711,0.1416,0.1216,0.2192,0.2192,0.2192,0.2193,0,-0.0108,-0.0064,0.01,0.0302,0.0395,0.0582,0.0972,0.1281,0.1553,0.203,0.2163,0.2492,0.2612,0.2543,0.256,0.2326,0.2019,0.2115,0.1914,0.1809,0.1226,0.1038,0.1014,0.0799,0.1862,0.1859,0.1856,0,-0.0047,0.001,0.0202,0.0353,0.0448,0.0735,0.1009,0.1323,0.166,0.2199,0.2467,0.2703,0.2953,0.2838,0.2503,0.2207,0.1915,0.1848,0.174,0.1278,0.1006,0.0907,0.072,0.1655,0.1651,0.1648,0.1645,0,0.0084,0.0104,0.0235,0.0501,0.0756,0.1072,0.1446,0.17,0.2144,0.2495,0.2966,0.3183,0.3088,0.2855,0.2392,0.2135,0.1561,0.1762,0.1442,0.1025,0.078,0.0496,0.143,0.1615,0.1618,0.162,0.1622,0.1623,0.0216,0.0314,0.0479,0.0755,0.1038,0.1428,0.1714,0.21,0.2566,0.3116,0.3267,0.3618,0.3206,0.2619,0.2137,0.123,0.1301,0.0966,0.0813,0.0784,0.0524,0.1302,0.1293,0.1294,0.1295,0.1295,0.1296,0,0.0461,0.0564,0.0785,0.1126,0.146,0.1574,0.2072,0.2363,0.2852,0.3302,0.3653,0.3717,0.301,0.2296,0.111,0.0436,0.0201,0.0095,-0.003,-0.0152,0.0695,0.0627,0.0287,0.0287,0.0287,0.0288,0.0288,0.0288,0.0638,0.0856,0.0939,0.1481,0.1723,0.2182,0.2453,0.28,0.3155,0.3665,0.394,0.4153,0.3658,0.1522,-0.0024,-0.0366,-0.0836,-0.0898,-0.1131,-0.0569,-0.0499,-0.0432,-0.0536,-0.1115,-0.1117,-0.192,-0.1928,-0.1934]}],[{"header":{"parameterUnit":"m.s-1","parameterCategory":2,"la1":30.2991,"la2":30.254,"lo1":-89.0895,"lo2":-89.0444,"dy":0.0017,"dx":0.0017,"nx":28,"ny":28,"refTime":"2025-07-24T03:00:00:Z","depth":"2","parameterNumber":2,"parameterNumberName":"U-component_of_CURRENTS"},"data":[0,0,0,0,0,0,0,0,0,0,0,0,0,0,0,0,0,0,0,0,0,0,0,0,0,0,0,0,0,0,0,0,0,0,0,0,0,0,0,0,0,0,0,0,0,0,0,0,0,0,0,0,0,0,0,0,0,0,0.2686,0.2686,0,0.2734,0.2735,0.2736,0.279,0.2791,0.2792,0.2793,0.294,0.2943,0.2946,0,0,0,0,0,0,0,0,0,0,0,0,0,0.2614,0.2615,0.2686,0.2686,0.2687,0.2734,0.2735,0.2736,0.279,0.2791,0.2792,0.2793,0.2939,0.2943,0.2947,0,0,0,0,0,0,0,0,0,0,0,0,0,0.2652,0.2615,0.2686,0.2719,0.2723,0.2734,0.2735,0.2736,0.279,0.2791,0.2792,0.2794,0.2938,0.2943,0.2947,0.2954,0,0,0.2962,0.2964,0,0,0,0,0,0,0,0,0.265,0.2655,0.2714,0.2717,0.2721,0.2757,0.2764,0.2814,0.279,0.2765,0.2793,0.2794,0.2887,0.2896,0.2902,0.2961,0.2967,0.2962,0.2965,0.2967,0.2969,0,0,0,0,0,0,0,0.2648,0.2653,0.2706,0.2714,0.2719,0.2723,0.273,0.2773,0.2821,0.2767,0.2771,0.2776,0.289,0.2897,0.2906,0.297,0.2962,0.2967,0.297,0.2971,0.3155,0.3157,0,0,0,0,0,0,0.2641,0.2651,0.2704,0.2707,0.2687,0.2723,0.2731,0.2745,0.2819,0.283,0.2775,0.2778,0.2888,0.29,0.2912,0.303,0.2967,0.2972,0.2975,0.3153,0.3156,0.3158,0,0,0,0,0,0,0.2639,0.2645,0.2702,0.2679,0.2686,0.2724,0.2738,0.2745,0.2777,0.2823,0.2837,0.2802,0.289,0.2905,0.2987,0.3032,0.2974,0.2978,0.3151,0.3154,0.3157,0.32,0,0,0,0,0,0,0.2637,0.2645,0.2652,0.2679,0.2688,0.2737,0.2737,0.2745,0.2776,0.2782,0.2851,0.2864,0.2892,0.298,0.2992,0.3038,0.2982,0.3149,0.3153,0.3156,0.3196,0.3204,0.3211,0,0,0,0,0,0.2634,0.2652,0.2652,0.2658,0.2696,0.2738,0.2745,0.2774,0.2777,0.2804,0.2854,0.2863,0.3012,0.2985,0.2999,0.3048,0.3147,0.3151,0.3156,0.3192,0.3202,0.321,0,0,0,0,0,0,0.2626,0.266,0.266,0.2687,0.2718,0.2748,0.2773,0.2783,0.2838,0.2856,0.2889,0.2907,0.2999,0.3014,0.2984,0.3112,0.3081,0.3088,0.3104,0.3114,0.3121,0.3119,0.2986,0,0,0,0,0,0.2623,0.2646,0.2677,0.2697,0.2718,0.2744,0.2762,0.2788,0.2835,0.286,0.2904,0.296,0.3021,0.306,0.3114,0.318,0.3198,0.3221,0.3228,0.3234,0.3243,0.3317,0.3332,0.3173,0.3173,0.3173,0,0,0.2621,0.2643,0.2653,0.2696,0.2723,0.2771,0.2761,0.2811,0.2858,0.2869,0.2956,0.2992,0.3046,0.3129,0.317,0.3152,0.3286,0.324,0.3245,0.325,0.3323,0.3339,0.3352,0.3176,0.3175,0.3175,0,0,0.2646,0.2657,0.2693,0.2726,0.2777,0.28,0.2819,0.2869,0.2906,0.2978,0.3006,0.307,0.3151,0.3203,0.3236,0.3315,0.3325,0.3332,0.337,0.3442,0.3455,0.3468,0.3494,0.3509,0.3333,0.3333,0.3333,0,0.2642,0.2691,0.271,0.2762,0.2793,0.2818,0.2873,0.2915,0.2986,0.3025,0.3021,0.3149,0.3189,0.3293,0.3319,0.3334,0.3359,0.3329,0.3451,0.3464,0.3475,0.35,0.3516,0.3336,0.3336,0.3335,0.3335,0,0.2706,0.2743,0.2773,0.2843,0.288,0.2933,0.2989,0.3041,0.3073,0.3111,0.3215,0.326,0.3334,0.3356,0.3362,0.3469,0.3453,0.3452,0.3424,0.3494,0.3515,0.3531,0.334,0.3339,0.3338,0.3337,0,0,0.2705,0.2797,0.2809,0.2843,0.2928,0.2962,0.3054,0.3137,0.3195,0.3259,0.3337,0.3424,0.3434,0.3472,0.349,0.3542,0.3633,0.353,0.3532,0.3548,0.3768,0.3645,0.3648,0.3657,0.3661,0.3663,0.3744,0,0.2751,0.284,0.2884,0.2967,0.3015,0.3068,0.3139,0.3217,0.3282,0.3365,0.3424,0.3504,0.3486,0.3519,0.3575,0.3639,0.3678,0.3609,0.3706,0.3708,0.3584,0.3664,0.3411,0.3452,0.3758,0.3761,0.3763,0,0.2806,0.2855,0.2938,0.3016,0.3044,0.3093,0.3199,0.3269,0.3392,0.3449,0.3538,0.3581,0.3689,0.3642,0.3782,0.3743,0.3755,0.3778,0.3782,0.3663,0.3613,0.3438,0.3468,0.3787,0.3785,0.3784,0.3782,0,0.2785,0.289,0.2947,0.2978,0.3077,0.3121,0.3173,0.3289,0.3354,0.3501,0.3566,0.3691,0.3765,0.3826,0.3874,0.3845,0.4,0.3969,0.3859,0.385,0.365,0.3617,0.4042,0.4042,0.4042,0.4041,0.4041,0,0.2809,0.2852,0.2934,0.2962,0.302,0.3099,0.3173,0.3259,0.3383,0.3479,0.3593,0.369,0.3818,0.3913,0.3926,0.3948,0.405,0.3881,0.3876,0.3654,0.3622,0.3924,0.3909,0.4044,0.4044,0.4043,0.4043,0,0.2769,0.2834,0.2885,0.2978,0.3007,0.3037,0.3139,0.3198,0.3336,0.3471,0.3522,0.3726,0.3863,0.3942,0.4063,0.401,0.404,0.4004,0.371,0.3668,0.3821,0.3808,0.3904,0.39,0.3897,0.3895,0.3893,0,0.2752,0.2779,0.2858,0.2875,0.291,0.2969,0.3013,0.3152,0.3231,0.3485,0.3551,0.3736,0.3835,0.3954,0.3929,0.3926,0.3997,0.365,0.3538,0.3828,0.3815,0.3806,0.3797,0.329,0.3283,0.3278,0.3273,0,0.2699,0.2724,0.2756,0.2795,0.2834,0.2886,0.297,0.3028,0.3223,0.332,0.3518,0.3616,0.3767,0.3676,0.3657,0.361,0.3633,0.3532,0.3963,0.3351,0.3253,0.3238,0.3249,0.3224,0.3229,0.3233,0.3235,0.3237,0.2625,0.2628,0.2668,0.2704,0.2752,0.2808,0.2819,0.2905,0.2987,0.3101,0.3325,0.3353,0.3444,0.3277,0.3198,0.3137,0.3357,0.3205,0.3222,0.3244,0.3146,0.3046,0.2959,0.2962,0.2965,0.2968,0.297,0,0.2515,0.2555,0.2579,0.2616,0.2629,0.2708,0.2795,0.2767,0.2787,0.2869,0.2944,0.274,0.2697,0.2789,0.2637,0.2622,0.2586,0.2509,0.2465,0.2518,0.2564,0.2429,0.2053,0.205,0.2046,0.2043,0,0,0.2454,0.245,0.2486,0.2491,0.2531,0.2521,0.2555,0.2511,0.2524,0.2367,0.2319,0.2506,0.2693,0.2313,0.2291,0.2162,0.2305,0.2069,0.2816,0.2818,0.2859,0.2991,0.2846,0,0,0,0,0]},{"header":{"parameterUnit":"m.s-1","parameterCategory":2,"la1":30.2991,"la2":30.254,"lo1":-89.0895,"lo2":-89.0444,"dy":0.0017,"dx":0.0017,"nx":28,"ny":28,"refTime":"2025-07-24T03:00:00:Z","depth":"2","parameterNumber":3,"parameterNumberName":"V-component_of_CURRENTS"},"data":[0,0,0,0,0,0,0,0,0,0,0,0,0,0,0,0,0,0,0,0,0,0,0,0,0,0,0,0,0,0,0,0,0,0,0,0,0,0,0,0,0,0,0,0,0,0,0,0,0,0,0,0,0,0,0,0,0,0,-0.0499,-0.0499,0,-0.0524,-0.0525,-0.0525,-0.0612,-0.0613,-0.0615,-0.0617,-0.0717,-0.0718,-0.0719,0,0,0,0,0,0,0,0,0,0,0,0,0,-0.047,-0.0471,-0.0499,-0.0499,-0.0499,-0.0524,-0.0525,-0.0525,-0.0611,-0.0613,-0.0615,-0.0617,-0.0716,-0.0718,-0.0719,0,0,0,0,0,0,0,0,0,0,0,0,0,-0.049,-0.0471,-0.0499,-0.0543,-0.0547,-0.0524,-0.0525,-0.0526,-0.0611,-0.0613,-0.0616,-0.0618,-0.0716,-0.0718,-0.0719,-0.0678,0,0,-0.0724,-0.0725,0,0,0,0,0,0,0,0,-0.0489,-0.0492,-0.0537,-0.054,-0.0545,-0.0565,-0.0551,-0.0579,-0.061,-0.0589,-0.0617,-0.062,-0.0669,-0.0675,-0.0677,-0.0683,-0.0687,-0.0724,-0.0725,-0.0726,-0.0726,0,0,0,0,0,0,0,-0.0488,-0.0491,-0.0512,-0.0537,-0.0541,-0.0543,-0.0549,-0.0557,-0.0618,-0.0591,-0.0597,-0.0595,-0.0673,-0.0675,-0.068,-0.0688,-0.0724,-0.0726,-0.0727,-0.0727,-0.075,-0.075,0,0,0,0,0,0,-0.0479,-0.0489,-0.0511,-0.0512,-0.052,-0.0541,-0.0548,-0.0558,-0.0617,-0.0627,-0.0593,-0.0599,-0.0671,-0.0678,-0.0684,-0.0707,-0.0726,-0.0727,-0.0728,-0.0751,-0.075,-0.075,0,0,0,0,0,0,-0.0479,-0.0481,-0.051,-0.0499,-0.0502,-0.0539,-0.0549,-0.0557,-0.0587,-0.0616,-0.0629,-0.0618,-0.0673,-0.0682,-0.0719,-0.0709,-0.0728,-0.073,-0.0751,-0.0751,-0.075,-0.071,0,0,0,0,0,0,-0.0478,-0.0481,-0.0483,-0.0498,-0.0503,-0.0499,-0.0546,-0.0556,-0.0579,-0.0588,-0.0641,-0.0651,-0.0676,-0.0717,-0.0721,-0.0712,-0.0731,-0.0752,-0.0751,-0.075,-0.0711,-0.0708,-0.0705,0,0,0,0,0,-0.0477,-0.0464,-0.0484,-0.0486,-0.0506,-0.0498,-0.05,-0.0536,-0.0578,-0.0577,-0.0631,-0.0651,-0.0716,-0.0718,-0.0723,-0.0714,-0.0752,-0.0751,-0.075,-0.0713,-0.0708,-0.0705,0,0,0,0,0,0,-0.0448,-0.0472,-0.0494,-0.049,-0.0496,-0.0512,-0.0512,-0.0541,-0.058,-0.0609,-0.0649,-0.0662,-0.0692,-0.0705,-0.0707,-0.0719,-0.0735,-0.0735,-0.0705,-0.0701,-0.0697,-0.0676,-0.0732,0,0,0,0,0,-0.0441,-0.0447,-0.0462,-0.0459,-0.0464,-0.0493,-0.0497,-0.0528,-0.056,-0.0582,-0.062,-0.066,-0.0682,-0.0698,-0.0721,-0.0722,-0.0745,-0.0719,-0.0715,-0.0712,-0.0699,-0.0738,-0.0737,-0.0747,-0.0747,-0.0747,0,0,-0.0425,-0.0441,-0.0443,-0.0454,-0.0468,-0.0463,-0.0504,-0.0518,-0.0527,-0.0584,-0.0618,-0.0654,-0.0683,-0.0695,-0.0707,-0.0711,-0.0721,-0.0711,-0.0709,-0.0696,-0.0737,-0.0737,-0.0736,-0.0747,-0.0747,-0.0747,0,0,-0.0387,-0.0417,-0.0405,-0.0412,-0.0434,-0.045,-0.0458,-0.0489,-0.0521,-0.0545,-0.0595,-0.0628,-0.0657,-0.0677,-0.0688,-0.0675,-0.0708,-0.0682,-0.0641,-0.068,-0.068,-0.068,-0.0706,-0.0708,-0.0673,-0.0673,-0.0673,0,-0.0366,-0.0362,-0.0396,-0.0387,-0.0387,-0.0446,-0.043,-0.0459,-0.0503,-0.0517,-0.0556,-0.0607,-0.0644,-0.0648,-0.0649,-0.0667,-0.0692,-0.0655,-0.0676,-0.0676,-0.0677,-0.0704,-0.0707,-0.0671,-0.0671,-0.0672,-0.0672,0,-0.0318,-0.032,-0.0313,-0.0328,-0.0331,-0.033,-0.037,-0.0394,-0.0444,-0.0471,-0.0505,-0.0556,-0.0578,-0.0597,-0.0621,-0.063,-0.0649,-0.0674,-0.0686,-0.0673,-0.0703,-0.0707,-0.0668,-0.0669,-0.067,-0.067,0,0,-0.0256,-0.0273,-0.0272,-0.0269,-0.0306,-0.0298,-0.0319,-0.0334,-0.0336,-0.0404,-0.0398,-0.046,-0.0496,-0.051,-0.0549,-0.0584,-0.0619,-0.0624,-0.0627,-0.0648,-0.0699,-0.0676,-0.0678,-0.0654,-0.0655,-0.0655,-0.0718,0,-0.0206,-0.0172,-0.02,-0.0174,-0.0161,-0.0216,-0.0215,-0.0248,-0.0286,-0.0297,-0.0371,-0.0385,-0.046,-0.0464,-0.0516,-0.058,-0.0628,-0.0599,-0.0709,-0.0711,-0.0691,-0.0682,-0.0648,-0.0697,-0.0722,-0.0723,-0.0723,0,-0.0146,-0.0134,-0.0096,-0.0095,-0.0094,-0.0089,-0.0095,-0.0102,-0.0144,-0.0172,-0.0215,-0.0271,-0.032,-0.0392,-0.0515,-0.0494,-0.0593,-0.0661,-0.0666,-0.0657,-0.0695,-0.0714,-0.0704,-0.0731,-0.073,-0.0729,-0.0729,0,-0.0074,-0.006,-0.0027,-0.0029,-0.0037,-0.0031,-0.0036,-0.0064,-0.0047,-0.0086,-0.0066,-0.0165,-0.0172,-0.0325,-0.0465,-0.0496,-0.0599,-0.0661,-0.074,-0.074,-0.0736,-0.0734,-0.0768,-0.0768,-0.0768,-0.0767,-0.0767,0,-0.0005,0.002,0.0008,0.0027,0.0068,0.0039,0.0081,0.0061,0.0071,0.013,0.001,0.0058,-0.0155,-0.0237,-0.0419,-0.0565,-0.0569,-0.0723,-0.0752,-0.072,-0.0716,-0.0765,-0.0764,-0.077,-0.0769,-0.0769,-0.0768,0,0.0065,0.0059,0.0094,0.0096,0.0101,0.0129,0.0163,0.0208,0.0201,0.0284,0.0286,0.0236,0.014,-0.008,-0.0288,-0.0459,-0.0636,-0.0698,-0.0634,-0.0654,-0.0772,-0.0768,-0.0806,-0.0805,-0.0805,-0.0805,-0.0804,0,0.0101,0.0125,0.0146,0.0176,0.0176,0.0214,0.0257,0.0265,0.0343,0.0419,0.0494,0.0432,0.0429,0.013,-0.0194,-0.0505,-0.0572,-0.0676,-0.0739,-0.075,-0.0775,-0.0772,-0.0768,-0.0727,-0.0726,-0.0725,-0.0725,0,0.0151,0.0153,0.0181,0.0253,0.0299,0.0377,0.0454,0.0549,0.0609,0.0714,0.0873,0.0876,0.0584,0.0311,-0.0132,-0.0354,-0.063,-0.067,-0.0696,-0.071,-0.0678,-0.0701,-0.0701,-0.0719,-0.0719,-0.072,-0.072,-0.072,0.0167,0.0202,0.0243,0.0324,0.0405,0.0563,0.0684,0.0821,0.1007,0.1191,0.1149,0.116,0.0767,0.0235,-0.013,-0.0532,-0.056,-0.0719,-0.0721,-0.0724,-0.069,-0.0658,-0.0689,-0.069,-0.069,-0.069,-0.0691,0,0.0166,0.0227,0.0314,0.0435,0.0585,0.0612,0.0839,0.1016,0.131,0.1382,0.149,0.1149,0.0796,0.0358,-0.0226,-0.0586,-0.064,-0.0689,-0.0686,-0.069,-0.0694,-0.066,-0.0652,-0.0652,-0.0652,-0.0653,0,0,0.0154,0.0243,0.0318,0.0568,0.0692,0.094,0.1109,0.1392,0.1532,0.1661,0.162,0.1448,0.0914,0.0504,0.0006,-0.0304,-0.0408,-0.0368,-0.0368,-0.0312,-0.031,-0.069,-0.0638,0,0,0,0,0]}],[{"header":{"parameterUnit":"m.s-1","parameterCategory":2,"la1":30.2991,"la2":30.254,"lo1":-89.0895,"lo2":-89.0444,"dy":0.0017,"dx":0.0017,"nx":28,"ny":28,"refTime":"2025-07-24T03:00:00:Z","depth":"4","parameterNumber":2,"parameterNumberName":"U-component_of_CURRENTS"},"data":[0,0,0,0,0,0,0,0,0,0,0,0,0,0,0,0,0,0,0,0,0,0,0,0,0,0,0,0,0,0,0,0,0,0,0,0,0,0,0,0,0,0,0,0,0,0,0,0,0,0,0,0,0,0,0,0,0,0,0.1089,0.109,0,0.12,0.1201,0.1202,0.1292,0.1293,0.1294,0.1295,0.1342,0.1343,0.1343,0,0,0,0,0,0,0,0,0,0,0,0,0,0.0872,0.0876,0.1089,0.109,0.1092,0.12,0.1201,0.1202,0.1292,0.1293,0.1295,0.1296,0.1342,0.1343,0.1343,0,0,0,0,0,0,0,0,0,0,0,0,0,0.0971,0.0877,0.1088,0.1151,0.1158,0.1199,0.1201,0.1203,0.1292,0.1293,0.1295,0.1297,0.1342,0.1343,0.1343,0.1312,0,0,0.1344,0.1344,0,0,0,0,0,0,0,0,0.0965,0.0979,0.114,0.1147,0.1155,0.1236,0.1142,0.1237,0.1291,0.1239,0.1295,0.1297,0.1301,0.1305,0.132,0.1314,0.1316,0.1344,0.1344,0.1344,0.1344,0,0,0,0,0,0,0,0.0959,0.0974,0.1131,0.1142,0.1151,0.1145,0.1162,0.116,0.1256,0.1243,0.1251,0.1266,0.1304,0.132,0.1322,0.1317,0.1344,0.1344,0.1344,0.1345,0.1468,0.1471,0,0,0,0,0,0,0.0952,0.0968,0.1127,0.1134,0.1064,0.1149,0.1167,0.1206,0.1258,0.1269,0.1264,0.127,0.1318,0.1321,0.1323,0.142,0.1344,0.1345,0.1345,0.1465,0.1468,0.1472,0,0,0,0,0,0,0.0947,0.0966,0.1123,0.1053,0.1073,0.1151,0.1194,0.1208,0.126,0.1275,0.1284,0.1308,0.132,0.1323,0.1372,0.1418,0.1345,0.1345,0.1461,0.1466,0.147,0.153,0,0,0,0,0,0,0.0941,0.0964,0.1023,0.1054,0.1077,0.117,0.1193,0.1209,0.1266,0.1275,0.1314,0.1318,0.1321,0.1371,0.1372,0.1417,0.1345,0.1457,0.1463,0.1469,0.1524,0.1536,0.1546,0,0,0,0,0,0.0933,0.0988,0.1026,0.1047,0.1146,0.1171,0.1183,0.124,0.1266,0.1293,0.1335,0.1319,0.1409,0.1373,0.1373,0.142,0.1454,0.1462,0.1468,0.1519,0.1533,0.1546,0,0,0,0,0,0,0.0937,0.1004,0.1045,0.1126,0.1161,0.1188,0.1228,0.1255,0.1309,0.133,0.134,0.1348,0.1407,0.141,0.137,0.1479,0.1436,0.1443,0.1474,0.1488,0.1499,0.1497,0.1346,0,0,0,0,0,0.0962,0.101,0.1068,0.1128,0.1153,0.1196,0.1226,0.1259,0.1294,0.1323,0.1352,0.1394,0.1429,0.1457,0.1478,0.1525,0.152,0.1564,0.1575,0.1584,0.1588,0.1613,0.1626,0.1495,0.1494,0.1494,0,0,0.0969,0.1019,0.1046,0.113,0.1164,0.1206,0.1219,0.1265,0.131,0.1314,0.1394,0.142,0.1449,0.1512,0.1541,0.1525,0.1626,0.1593,0.16,0.1599,0.1622,0.1634,0.1645,0.1499,0.1498,0.1498,0,0,0.0977,0.1062,0.1099,0.1132,0.1198,0.1232,0.125,0.1303,0.1349,0.1413,0.1439,0.1496,0.155,0.1586,0.1608,0.1691,0.1673,0.1715,0.1777,0.1802,0.1811,0.182,0.1847,0.1857,0.1733,0.1733,0.1733,0,0.1003,0.1063,0.111,0.115,0.119,0.1245,0.1287,0.1333,0.1399,0.1434,0.1453,0.1572,0.1584,0.1669,0.1711,0.1712,0.1728,0.1716,0.1812,0.182,0.1828,0.1853,0.1864,0.1736,0.1736,0.1736,0.1735,0,0.1015,0.1087,0.1104,0.1187,0.1232,0.1272,0.1339,0.1405,0.147,0.1505,0.1608,0.1655,0.1735,0.1753,0.1757,0.184,0.1835,0.1808,0.1766,0.1844,0.1867,0.1877,0.1742,0.174,0.1739,0.1738,0,0,0.1021,0.1105,0.1122,0.116,0.126,0.1287,0.1384,0.1471,0.1537,0.162,0.1704,0.1787,0.183,0.1861,0.1893,0.1916,0.1982,0.19,0.19,0.1907,0.2052,0.1953,0.1954,0.1975,0.1977,0.1978,0.2051,0,0.1035,0.1107,0.1155,0.1228,0.127,0.1355,0.1435,0.1517,0.1602,0.1693,0.1766,0.1842,0.1869,0.1924,0.1968,0.1981,0.201,0.1966,0.1994,0.1995,0.1879,0.1962,0.1984,0.2058,0.206,0.2062,0.2063,0,0.1038,0.1092,0.1173,0.1259,0.1289,0.1348,0.1493,0.1572,0.1701,0.1768,0.1884,0.1925,0.2034,0.201,0.2116,0.2096,0.2088,0.2075,0.2077,0.1966,0.1913,0.1964,0.208,0.2079,0.2077,0.2076,0.2075,0,0.0996,0.1098,0.117,0.1198,0.1317,0.1381,0.1462,0.1596,0.1675,0.1821,0.1887,0.2018,0.2107,0.2136,0.2175,0.2148,0.2242,0.2193,0.2094,0.2087,0.2123,0.2113,0.2219,0.2219,0.2219,0.2219,0.2219,0,0.098,0.1026,0.1159,0.1183,0.1268,0.1368,0.1477,0.1577,0.1733,0.1819,0.1935,0.2024,0.2138,0.2209,0.2208,0.2218,0.229,0.2119,0.2102,0.2152,0.2144,0.2131,0.2119,0.2222,0.2221,0.222,0.222,0,0.0905,0.0999,0.1063,0.12,0.1243,0.1308,0.1462,0.1541,0.1707,0.1835,0.1882,0.206,0.2168,0.2249,0.2302,0.226,0.2249,0.2212,0.2293,0.2277,0.2066,0.2058,0.2109,0.2107,0.2104,0.2102,0.2101,0,0.0869,0.0902,0.1046,0.1092,0.1154,0.1265,0.1342,0.1515,0.1607,0.1836,0.1887,0.2041,0.214,0.2182,0.2254,0.2273,0.2225,0.2208,0.2104,0.2078,0.2057,0.2052,0.2047,0.2097,0.2096,0.2095,0.2095,0,0.0773,0.0845,0.0896,0.1003,0.1085,0.1169,0.1295,0.1354,0.1573,0.1719,0.1858,0.192,0.2045,0.2122,0.2167,0.2155,0.2219,0.2182,0.2185,0.2086,0.2063,0.2043,0.2041,0.2087,0.2088,0.2088,0.2089,0,0.069,0.0703,0.0794,0.088,0.0991,0.1072,0.1139,0.1272,0.1389,0.1665,0.1701,0.1876,0.2037,0.206,0.2091,0.2104,0.2048,0.1955,0.1968,0.1978,0.19,0.1848,0.1807,0,0,0,0,0,0.0603,0.0603,0.0665,0.0763,0.0888,0.0957,0.1117,0.1208,0.1415,0.148,0.1603,0.1708,0.1805,0.1888,0.1872,0.1993,0.2029,0.1961,0.192,0.204,0.205,0.1969,0,0,0,0,0,0,0.0531,0.0562,0.0608,0.0673,0.0737,0.085,0.0952,0.1082,0.1147,0.1365,0.1437,0.1591,0.1711,0.18,0.1835,0.1858,0.1794,0.2074,0.207,0.2035,0.2044,0.2051,0.1972,0,0,0,0,0]},{"header":{"parameterUnit":"m.s-1","parameterCategory":2,"la1":30.2991,"la2":30.254,"lo1":-89.0895,"lo2":-89.0444,"dy":0.0017,"dx":0.0017,"nx":28,"ny":28,"refTime":"2025-07-24T03:00:00:Z","depth":"4","parameterNumber":3,"parameterNumberName":"V-component_of_CURRENTS"},"data":[0,0,0,0,0,0,0,0,0,0,0,0,0,0,0,0,0,0,0,0,0,0,0,0,0,0,0,0,0,0,0,0,0,0,0,0,0,0,0,0,0,0,0,0,0,0,0,0,0,0,0,0,0,0,0,0,0,0,0.0227,0.0226,0,0.0136,0.0135,0.0134,0.0075,0.0075,0.0074,0.0074,-0.0002,-0.0004,-0.0006,0,0,0,0,0,0,0,0,0,0,0,0,0,0.0288,0.0288,0.0227,0.0226,0.0225,0.0137,0.0135,0.0134,0.0075,0.0075,0.0074,0.0074,-0.0002,-0.0004,-0.0006,0,0,0,0,0,0,0,0,0,0,0,0,0,0.0235,0.0288,0.0227,0.0186,0.0181,0.0137,0.0135,0.0134,0.0075,0.0074,0.0074,0.0074,-0.0001,-0.0004,-0.0006,-0.0015,0,0,-0.0014,-0.0016,0,0,0,0,0,0,0,0,0.0238,0.0233,0.0193,0.0189,0.0183,0.0118,0.0129,0.0085,0.0075,0.0114,0.0074,0.0074,0.0041,0.0034,0.0016,-0.0019,-0.0022,-0.0015,-0.0016,-0.0018,-0.0018,0,0,0,0,0,0,0,0.0242,0.0236,0.0189,0.0192,0.0186,0.0152,0.0144,0.012,0.0079,0.011,0.0106,0.0099,0.0038,0.0019,0.0014,-0.0023,-0.0015,-0.0017,-0.0019,-0.002,-0.012,-0.0121,0,0,0,0,0,0,0.026,0.024,0.0192,0.0187,0.0212,0.0151,0.0143,0.0138,0.0079,0.007,0.0099,0.0096,0.0023,0.0017,0.0011,-0.0023,-0.0018,-0.002,-0.0022,-0.0119,-0.012,-0.0121,0,0,0,0,0,0,0.0262,0.0257,0.0196,0.0212,0.0202,0.0151,0.0146,0.0136,0.0114,0.0071,0.0062,0.0087,0.0023,0.0015,-0.0021,-0.0025,-0.0021,-0.0024,-0.0118,-0.0119,-0.0121,-0.0077,0,0,0,0,0,0,0.0264,0.0258,0.0259,0.0214,0.0202,0.0172,0.0146,0.0135,0.0111,0.0107,0.0058,0.005,0.0022,-0.0017,-0.0024,-0.0029,-0.0026,-0.0117,-0.0119,-0.012,-0.0077,-0.0077,-0.0077,0,0,0,0,0,0.0266,0.0271,0.0259,0.0254,0.0206,0.0173,0.0163,0.0124,0.0111,0.0103,0.0063,0.0051,-0.0035,-0.002,-0.0028,-0.0033,-0.0116,-0.0118,-0.012,-0.0077,-0.0077,-0.0077,0,0,0,0,0,0,0.0293,0.0264,0.0251,0.0245,0.0213,0.0163,0.0155,0.0128,0.0089,0.0087,0.0043,0.0032,-0.0005,-0.0028,-0.001,-0.0072,-0.0079,-0.0083,-0.0044,-0.0044,-0.0044,-0.0035,-0.0028,0,0,0,0,0,0.0302,0.0301,0.0262,0.0257,0.0248,0.0203,0.0184,0.0158,0.012,0.0102,0.0067,0.0025,-0.0021,-0.0037,-0.0077,-0.01,-0.0133,-0.0114,-0.0114,-0.0113,-0.0114,-0.0173,-0.0178,-0.0129,-0.0129,-0.0129,0,0,0.0313,0.0296,0.0295,0.0264,0.0239,0.0226,0.019,0.0169,0.0153,0.0102,0.0074,0.0026,-0.0029,-0.0066,-0.0084,-0.0083,-0.0144,-0.0116,-0.0115,-0.0116,-0.0176,-0.0181,-0.0185,-0.0131,-0.0131,-0.013,0,0,0.0334,0.0319,0.0326,0.0306,0.0275,0.0246,0.0243,0.0197,0.0173,0.014,0.009,0.0037,-0.0012,-0.0063,-0.0094,-0.0116,-0.0144,-0.0127,-0.0111,-0.0168,-0.0172,-0.0176,-0.0215,-0.0223,-0.0121,-0.0121,-0.0121,0,0.0342,0.0348,0.032,0.0319,0.0309,0.026,0.0261,0.0228,0.0174,0.0154,0.014,0.0029,-0.0015,-0.008,-0.0094,-0.0114,-0.0144,-0.0101,-0.0165,-0.017,-0.0175,-0.0214,-0.0223,-0.012,-0.012,-0.012,-0.012,0,0.0369,0.0371,0.0374,0.0359,0.0343,0.0336,0.0294,0.027,0.0238,0.0199,0.0134,0.0058,-0.0007,-0.0036,-0.0072,-0.0133,-0.0143,-0.0159,-0.0158,-0.0177,-0.0217,-0.0228,-0.0117,-0.0118,-0.0118,-0.0119,0,0,0.0389,0.0392,0.0394,0.04,0.0366,0.0357,0.0334,0.0296,0.0283,0.0214,0.0182,0.0081,0.0036,-0.0005,-0.0065,-0.0121,-0.0184,-0.0149,-0.0153,-0.0173,-0.0298,-0.0279,-0.0289,-0.0207,-0.0209,-0.021,-0.0309,0,0.0414,0.0438,0.0425,0.0439,0.0446,0.0404,0.0391,0.0349,0.0305,0.0263,0.0166,0.0114,0.005,0.0018,-0.0053,-0.0158,-0.021,-0.0155,-0.029,-0.0294,-0.0263,-0.03,-0.0216,-0.0317,-0.0319,-0.0321,-0.0322,0,0.0439,0.0454,0.0484,0.0488,0.0488,0.0489,0.0463,0.0444,0.037,0.0335,0.0254,0.0182,0.0068,0.0031,-0.0155,-0.0115,-0.02,-0.0277,-0.0282,-0.0287,-0.0295,-0.0301,-0.0341,-0.034,-0.0339,-0.0337,-0.0336,0,0.047,0.049,0.0522,0.0523,0.052,0.0525,0.0518,0.0468,0.0459,0.0382,0.0359,0.0219,0.015,0.0009,-0.016,-0.0157,-0.035,-0.0363,-0.0425,-0.0424,-0.0427,-0.0422,-0.0477,-0.0477,-0.0476,-0.0476,-0.0476,0,0.0493,0.0515,0.0548,0.0563,0.0599,0.058,0.0602,0.0568,0.0532,0.0519,0.0403,0.0349,0.0141,0.0003,-0.0144,-0.0321,-0.0341,-0.0431,-0.0455,-0.0406,-0.0398,-0.0434,-0.0428,-0.048,-0.0479,-0.0478,-0.0478,0,0.0508,0.0531,0.0568,0.0598,0.0615,0.064,0.0668,0.0678,0.0637,0.0613,0.0592,0.0436,0.0249,0.0049,-0.0184,-0.0289,-0.046,-0.0508,-0.0434,-0.045,-0.0497,-0.0488,-0.0592,-0.0592,-0.0592,-0.0592,-0.0592,0,0.0512,0.0538,0.0603,0.0639,0.0657,0.0704,0.0736,0.0728,0.0737,0.0659,0.0643,0.0475,0.0349,0.0037,-0.0177,-0.0447,-0.0478,-0.0548,-0.0539,-0.05,-0.0513,-0.0503,-0.0493,-0.0593,-0.0593,-0.0593,-0.0593,0,0.051,0.0543,0.058,0.0667,0.0722,0.0779,0.0821,0.0836,0.0816,0.079,0.0684,0.0512,0.0305,0.0047,-0.0157,-0.0353,-0.05,-0.0551,-0.0552,-0.0545,-0.0503,-0.0513,-0.0503,-0.0594,-0.0594,-0.0594,-0.0594,0,0.0505,0.0537,0.0603,0.0672,0.0754,0.0814,0.0843,0.0851,0.0857,0.0781,0.0744,0.0516,0.0385,0.0095,-0.0103,-0.0288,-0.0335,-0.0374,-0.0385,-0.0386,-0.03,-0.0216,-0.0246,0,0,0,0,0,0.0491,0.0529,0.06,0.0681,0.0769,0.0816,0.0877,0.0897,0.0892,0.0836,0.0795,0.0604,0.0299,0.0152,-0.0031,-0.0122,-0.0376,-0.034,-0.0428,-0.0599,-0.0598,-0.0531,0,0,0,0,0,0,0.0476,0.0543,0.0587,0.0677,0.0736,0.0831,0.0871,0.0876,0.0843,0.081,0.0646,0.0576,0.027,0.04,-0.0032,-0.0092,-0.0166,-0.0485,-0.0488,-0.0599,-0.0598,-0.0598,-0.0528,0,0,0,0,0]}]]